Find Starlink 31462

NORAD ID: 59466 Int'l Des: 2024-068 Owner: SPXS Country: US Constellation: starlink operational
LEOCIRCULAR

現在のビュー

3D地球を読み込み中...

About Starlink 31462

Starlink 31462 (NORAD 59466) is a starlink constellation satellite (v2 mini) launched Apr 10, 2024 by SPXS of US. It operates in LEO, CIRCULAR orbit with a mass of 730.00 kg.

次回通過

Passes for default location (London). Set your location on the main map for personalized predictions.

高度履歴

Loading altitude history...

軌道要素

1 59466U 24068M 26230.19444701 .00001777 00000-0 74069-4 0 9995
2 59466 43.0017 202.3337 0001276 273.4505 86.6201 15.27582842133227
Epoch: Aug 18, 2026 • Age: 19 hours

現在のステータス

高度 490.4 km
遠地点 / 近地点 N/A
速度 7.62 km/s
衛星直下点 -30.11°S, 156.96°W
打ち上げ日 Apr 10, 2024
運用期間 2.3 years
タイプ internet

技術仕様

分類 Payload
質量 730.00 kg
乾燥質量 700.00 kg
総質量 730.00 kg
長さ 0.30 m
直径 4.10 m
スパン 29.00 m
形状 Box + pan
製造者 SPXS
バスタイプ Starlink V2M
フェーズステータス In Orbit
所有者/国 SPXS/US

Most Searched